Home   Weather   Hammerfest   Past weeks
Flag for Norway

Past Weather in Hammerfest, Norway — Yesterday and Last 2 Weeks

Now
37 °F

Broken clouds.


Feels Like: 28 °F
Forecast: 34 / 28 °F
Wind: 17 mph from Southwest

Location: Hammerfest

Current Time: Oct 18, 2019 at 2:03:12 pm

Latest Report: Oct 18, 2019 at 1:20 pm


Visibility: N/A

Pressure: 29.65 "Hg

Humidity: 81%

Dew Point: 32 °F

Location of HammerfestLocation

Past Weather in Hammerfest — Graph

°F

Hammerfest Temperature Yesterday

Maximum temperature yesterday: 37 °F (at 12:50 pm)
Minimum temperature yesterday: 27 °F (at 6:20 am)
Average temperature yesterday: 31 °F

High & Low Weather Summary for the Past Weeks

 TemperatureHumidityPressure
High43 °F (Oct 6, 2:20 am)100% (Oct 3, 7:50 pm)30.21 "Hg (Oct 3, 7:50 pm)
Low25 °F (Oct 18, 12:50 am)56% (Oct 17, 12:50 pm)29.39 "Hg (Oct 11, 2:50 am)
Average36 °F85%29.81 "Hg
* Reported Oct 3 12:20 pm — Oct 18 12:50 pm, Hammerfest. Weather by CustomWeather, © 2019

Note: Actual official high and low records may vary slightly from our data, if they occured in-between our weather recording intervals... More about our weather records

Advertising

Hammerfest Weather History for the Previous 24 Hours

Scroll right to see more
 ConditionsComfort  
Time TempWeatherWind HumidityBarometerVisibility
12:50 pm
Fri, Oct 18
37 °FBroken clouds.13 mph75%29.65 "HgN/A
12:20 pm36 °FScattered showers. Broken clouds.12 mph81%29.65 "HgN/A
11:50 am36 °FScattered showers. Broken clouds.15 mph81%29.65 "HgN/A
11:20 am36 °FScattered showers. Partly sunny.12 mph75%29.65 "HgN/A
10:20 am34 °FBroken clouds.6 mph75%29.65 "HgN/A
9:50 am34 °FBroken clouds.7 mph75%29.65 "HgN/A
9:20 am32 °FBroken clouds.6 mph80%29.65 "HgN/A
8:50 am32 °FPartly sunny.5 mph75%29.65 "HgN/A
8:20 am32 °FPartly sunny.7 mph80%29.65 "HgN/A
7:20 am32 °FPartly cloudy.6 mph75%29.65 "HgN/A
6:50 am32 °FPassing clouds.6 mph75%29.65 "HgN/A
6:29 am32 °FPassing clouds.5 mph75%29.65 "HgN/A
6:20 am32 °FLight snow. Partly cloudy.6 mph69%29.65 "HgN/A
5:50 am32 °FClear.9 mph69%29.65 "Hg10 mi
4:50 am30 °FPassing clouds.7 mph69%29.68 "HgN/A
3:50 am30 °FOvercast.5 mph64%29.68 "HgN/A
2:50 am28 °FClear.5 mph69%29.71 "Hg10 mi
1:50 am25 °FClear.2 mph80%29.71 "Hg10 mi
12:50 am25 °FClear.2 mph80%29.74 "Hg10 mi
12:20 am27 °FPassing clouds.7 mph74%29.74 "HgN/A
11:50 pm
Thu, Oct 17
27 °FClear.9 mph74%29.74 "Hg10 mi
11:20 pm27 °FClear.12 mph74%29.77 "Hg10 mi
10:20 pm28 °FPassing clouds.7 mph74%29.77 "HgN/A
9:50 pm28 °FPassing clouds.7 mph74%29.77 "HgN/A
9:20 pm28 °FClear.5 mph80%29.77 "Hg10 mi
8:50 pm28 °FClear.6 mph80%29.77 "Hg10 mi
8:20 pm30 °FPassing clouds.6 mph75%29.80 "HgN/A
7:50 pm30 °FPassing clouds.6 mph75%29.80 "HgN/A
7:20 pm30 °FClear.5 mph75%29.80 "Hg10 mi
6:50 pm30 °FClear.5 mph75%29.80 "Hg10 mi
6:20 pm32 °FPassing clouds.5 mph69%29.80 "HgN/A
4:20 pm32 °FPassing clouds.13 mph75%29.83 "HgN/A
3:50 pm34 °FSunny.13 mph70%29.83 "Hg10 mi
3:20 pm34 °FSunny.12 mph70%29.83 "Hg10 mi
2:50 pm34 °FPassing clouds.9 mph70%29.86 "HgN/A
2:20 pm36 °FPassing clouds.10 mph60%29.86 "HgN/A
Weather by CustomWeather, © 2019

See weather overview